HAZ1754 ZPPP-ZSHC

Flight info

Callsign HAZ1754
Flight time 2h 36m
Altitude 35100
Route NODIB W137 LPS A581 P378/K0847S1070 A581 IDGAG W80 XSH DCT JDZ DCT TXN G204 OREXA
Aircraft A321/M-SDFGHIRWY/HB1

Departure

Time 2026-05-04 13:10
Airport Kunming Changshui International Airport (ZPPP)

Arrival

Time 2026-05-04 15:47
Airport Hangzhou Xiaoshan International Airport (ZSHC)
Time Latitude Longitude Altitude Speed Heading
2026-05-04 12:31 25.11071 102.93659 6897 ft 0 kts 39°
2026-05-04 12:47 25.11060 102.93649 6897 ft 4 kts 39°
2026-05-04 12:47 25.11041 102.93633 6898 ft 4 kts 15°
2026-05-04 12:47 25.11017 102.93635 6898 ft 4 kts 325°
2026-05-04 12:48 25.11001 102.93651 6897 ft 0 kts 308°
2026-05-04 12:50 25.11001 102.93650 6897 ft 1 kts 308°
2026-05-04 12:51 25.11016 102.93631 6897 ft 6 kts 308°
2026-05-04 12:51 25.11051 102.93580 6898 ft 11 kts 307°
2026-05-04 12:51 25.11111 102.93498 6899 ft 16 kts 307°
2026-05-04 12:51 25.11192 102.93385 6900 ft 21 kts 308°
2026-05-04 12:52 25.11257 102.93295 6902 ft 22 kts 308°
2026-05-04 12:52 25.11344 102.93172 6902 ft 19 kts 308°
2026-05-04 12:52 25.11396 102.93110 6903 ft 6 kts 326°
2026-05-04 12:52 25.11436 102.93119 6902 ft 8 kts 31°
2026-05-04 12:53 25.11494 102.93164 6902 ft 13 kts 39°
2026-05-04 12:53 25.11574 102.93236 6902 ft 17 kts 38°
2026-05-04 12:53 25.11681 102.93330 6901 ft 21 kts 38°
2026-05-04 12:53 25.11758 102.93393 6901 ft 10 kts 21°
2026-05-04 12:54 25.11820 102.93353 6901 ft 11 kts 339°
2026-05-04 12:54 25.11899 102.93395 6900 ft 15 kts 37°
2026-05-04 12:54 25.11995 102.93479 6900 ft 20 kts 38°
2026-05-04 12:54 25.12115 102.93584 6900 ft 24 kts 38°
2026-05-04 12:55 25.12219 102.93674 6899 ft 15 kts 38°
2026-05-04 12:55 25.12292 102.93737 6899 ft 6 kts 38°
2026-05-04 12:55 25.12294 102.93739 6899 ft 0 kts 38°
2026-05-04 12:56 25.12311 102.93753 6899 ft 6 kts 38°
2026-05-04 12:56 25.12362 102.93798 6899 ft 13 kts 38°
2026-05-04 12:56 25.12446 102.93872 6898 ft 16 kts 38°
2026-05-04 12:56 25.12515 102.93930 6898 ft 9 kts 38°
2026-05-04 12:57 25.12524 102.93938 6898 ft 0 kts 38°
2026-05-04 12:58 25.12531 102.93944 6898 ft 4 kts 38°
2026-05-04 12:58 25.12563 102.93972 6898 ft 8 kts 38°
2026-05-04 12:58 25.12618 102.94020 6897 ft 10 kts 38°
2026-05-04 12:59 25.12668 102.94063 6897 ft 8 kts 38°
2026-05-04 12:59 25.12712 102.94101 6896 ft 8 kts 38°
2026-05-04 12:59 25.12757 102.94140 6897 ft 8 kts 38°
2026-05-04 12:59 25.12802 102.94180 6896 ft 8 kts 38°
2026-05-04 13:00 25.12830 102.94205 6896 ft 0 kts 38°
2026-05-04 13:01 25.12841 102.94214 6896 ft 2 kts 38°
2026-05-04 13:01 25.12860 102.94231 6896 ft 3 kts 38°
2026-05-04 13:02 25.12873 102.94242 6896 ft 1 kts 38°
2026-05-04 13:02 25.12876 102.94244 6896 ft 0 kts 38°
2026-05-04 13:03 25.12895 102.94261 6896 ft 5 kts 38°
2026-05-04 13:03 25.12914 102.94277 6895 ft 0 kts 38°
2026-05-04 13:05 25.12914 102.94278 6895 ft 1 kts 38°
2026-05-04 13:06 25.12939 102.94289 6896 ft 4 kts 360°
2026-05-04 13:06 25.12957 102.94271 6895 ft 3 kts 307°
2026-05-04 13:06 25.12969 102.94253 6896 ft 2 kts 307°
2026-05-04 13:07 25.12973 102.94247 6895 ft 4 kts 307°
2026-05-04 13:07 25.13008 102.94196 6894 ft 12 kts 307°
2026-05-04 13:07 25.13032 102.94146 6893 ft 6 kts 264°
2026-05-04 13:08 25.13007 102.94116 6893 ft 5 kts 219°
2026-05-04 13:08 25.13004 102.94114 6893 ft 0 kts 218°
2026-05-04 13:09 25.12847 102.93977 6895 ft 63 kts 218°
2026-05-04 13:10 25.12342 102.93538 6901 ft 120 kts 218°
2026-05-04 13:10 25.11551 102.92851 6908 ft 167 kts 218°
2026-05-04 13:10 25.10538 102.91969 7035 ft 194 kts 218°
2026-05-04 13:10 25.09607 102.90947 7875 ft 189 kts 229°
2026-05-04 13:11 25.08788 102.89826 8537 ft 188 kts 235°
2026-05-04 13:11 25.07936 102.88720 8862 ft 197 kts 218°
2026-05-04 13:11 25.06600 102.88198 9000 ft 218 kts 181°
2026-05-04 13:11 25.05101 102.88688 9147 ft 236 kts 155°
2026-05-04 13:12 25.03595 102.89528 9289 ft 250 kts 155°
2026-05-04 13:12 25.02003 102.90429 9395 ft 267 kts 155°
2026-05-04 13:12 25.00281 102.91404 9522 ft 289 kts 154°
2026-05-04 13:12 24.98459 102.92434 9952 ft 299 kts 155°
2026-05-04 13:13 24.96563 102.93506 10248 ft 317 kts 155°
2026-05-04 13:13 24.94534 102.94644 10467 ft 333 kts 155°
2026-05-04 13:13 24.92506 102.95780 11423 ft 320 kts 155°
2026-05-04 13:13 24.90533 102.96889 12183 ft 318 kts 155°
2026-05-04 13:14 24.88573 102.97987 12754 ft 321 kts 155°
2026-05-04 13:14 24.86545 102.99119 13312 ft 325 kts 155°
2026-05-04 13:14 24.84541 103.00241 13861 ft 330 kts 154°
2026-05-04 13:14 24.82742 103.01826 14354 ft 338 kts 127°
2026-05-04 13:15 24.81769 103.04213 14830 ft 341 kts 97°
2026-05-04 13:15 24.81898 103.06784 15255 ft 338 kts 68°
2026-05-04 13:15 24.83053 103.08943 15651 ft 331 kts 39°
2026-05-04 13:15 24.84967 103.10332 16055 ft 325 kts 19°
2026-05-04 13:16 24.87057 103.11304 16510 ft 328 kts 17°
2026-05-04 13:16 24.89173 103.12272 16980 ft 331 kts 17°
2026-05-04 13:16 24.91311 103.13246 17440 ft 334 kts 17°
2026-05-04 13:16 24.93419 103.14302 17891 ft 342 kts 23°
2026-05-04 13:17 24.95483 103.15665 18222 ft 354 kts 28°
2026-05-04 13:17 24.97549 103.17248 18355 ft 369 kts 31°
2026-05-04 13:17 24.99649 103.18965 18488 ft 383 kts 32°
2026-05-04 13:17 25.01818 103.20758 18599 ft 396 kts 32°
2026-05-04 13:18 25.04067 103.22592 18701 ft 408 kts 31°
2026-05-04 13:18 25.06399 103.24449 18826 ft 418 kts 31°
2026-05-04 13:18 25.08802 103.26323 18940 ft 428 kts 31°
2026-05-04 13:18 25.11267 103.28226 19054 ft 437 kts 31°
2026-05-04 13:19 25.13788 103.30165 19186 ft 445 kts 31°
2026-05-04 13:19 25.16343 103.32131 19450 ft 449 kts 31°
2026-05-04 13:19 25.18911 103.34112 19771 ft 452 kts 31°
2026-05-04 13:19 25.21496 103.36109 20072 ft 454 kts 31°
2026-05-04 13:20 25.24088 103.38117 20380 ft 457 kts 31°
2026-05-04 13:20 25.26692 103.40144 20705 ft 459 kts 31°
2026-05-04 13:20 25.29309 103.42187 21027 ft 461 kts 31°
2026-05-04 13:20 25.31931 103.44235 21341 ft 463 kts 31°
2026-05-04 13:21 25.34568 103.46293 21666 ft 465 kts 31°
2026-05-04 13:21 25.37209 103.48350 22001 ft 465 kts 31°
2026-05-04 13:21 25.39867 103.50413 22311 ft 468 kts 31°
2026-05-04 13:21 25.42543 103.52488 22574 ft 471 kts 31°
2026-05-04 13:22 25.45228 103.54571 22845 ft 473 kts 31°
2026-05-04 13:22 25.47932 103.56672 23110 ft 476 kts 31°
2026-05-04 13:22 25.50622 103.58818 23384 ft 480 kts 35°
2026-05-04 13:22 25.53080 103.61354 23649 ft 487 kts 44°
2026-05-04 13:23 25.55180 103.64317 23873 ft 493 kts 53°
2026-05-04 13:23 25.57053 103.67511 24070 ft 496 kts 54°
2026-05-04 13:23 25.58932 103.70723 24283 ft 498 kts 54°
2026-05-04 13:23 25.60823 103.73946 24490 ft 500 kts 53°
2026-05-04 13:24 25.62724 103.77181 24682 ft 502 kts 53°
2026-05-04 13:24 25.64633 103.80430 24883 ft 504 kts 53°
2026-05-04 13:24 25.66544 103.83692 25087 ft 506 kts 53°
2026-05-04 13:25 25.70517 103.90497 25515 ft 510 kts 53°
2026-05-04 13:25 25.72445 103.93803 25698 ft 512 kts 53°
2026-05-04 13:25 25.74384 103.97127 25923 ft 514 kts 53°
2026-05-04 13:25 25.76331 104.00469 26137 ft 516 kts 53°
2026-05-04 13:26 25.78283 104.03824 26328 ft 518 kts 53°
2026-05-04 13:26 25.80237 104.07185 26586 ft 518 kts 52°
2026-05-04 13:26 25.82195 104.10539 26841 ft 518 kts 52°
2026-05-04 13:26 25.83496 104.12758 27013 ft 518 kts 52°
2026-05-04 13:27 25.85467 104.16101 27279 ft 518 kts 52°
2026-05-04 13:27 25.87445 104.19440 27591 ft 517 kts 52°
2026-05-04 13:27 25.89417 104.22774 27900 ft 516 kts 52°
2026-05-04 13:27 25.91382 104.26111 28185 ft 516 kts 52°
2026-05-04 13:28 25.93340 104.29454 28471 ft 516 kts 52°
2026-05-04 13:28 25.95296 104.32802 28750 ft 516 kts 52°
2026-05-04 13:28 25.97249 104.36152 29018 ft 517 kts 52°
2026-05-04 13:28 25.99202 104.39506 29305 ft 516 kts 52°
2026-05-04 13:29 26.01173 104.42840 29580 ft 514 kts 49°
2026-05-04 13:29 26.03419 104.45897 29839 ft 507 kts 40°
2026-05-04 13:29 26.05979 104.48551 30033 ft 500 kts 33°
2026-05-04 13:29 26.08663 104.51014 30227 ft 500 kts 33°
2026-05-04 13:30 26.11344 104.53477 30452 ft 499 kts 33°
2026-05-04 13:30 26.14020 104.55938 30724 ft 499 kts 33°
2026-05-04 13:30 26.16690 104.58400 30973 ft 498 kts 33°
2026-05-04 13:30 26.19357 104.60869 31218 ft 498 kts 33°
2026-05-04 13:31 26.22014 104.63330 31466 ft 497 kts 33°
2026-05-04 13:31 26.24673 104.65795 31649 ft 497 kts 33°
2026-05-04 13:31 26.27292 104.68226 31868 ft 497 kts 33°
2026-05-04 13:31 26.29947 104.70694 32108 ft 497 kts 33°
2026-05-04 13:32 26.32599 104.73161 32355 ft 496 kts 32°
2026-05-04 13:32 26.35244 104.75622 32621 ft 495 kts 32°
2026-05-04 13:32 26.37882 104.78077 32914 ft 494 kts 32°
2026-05-04 13:32 26.40516 104.80523 33187 ft 493 kts 32°
2026-05-04 13:33 26.43155 104.82973 33431 ft 493 kts 32°
2026-05-04 13:33 26.45793 104.85425 33693 ft 493 kts 32°
2026-05-04 13:33 26.48427 104.87874 33914 ft 493 kts 32°
2026-05-04 13:33 26.51058 104.90321 34152 ft 492 kts 32°
2026-05-04 13:34 26.53686 104.92768 34349 ft 492 kts 32°
2026-05-04 13:34 26.56308 104.95216 34525 ft 492 kts 32°
2026-05-04 13:34 26.58928 104.97668 34723 ft 491 kts 32°
2026-05-04 13:34 26.61533 105.00143 34915 ft 493 kts 36°
2026-05-04 13:35 26.63881 105.02978 35095 ft 503 kts 45°
2026-05-04 13:35 26.67332 105.09934 35200 ft 518 kts 60°
2026-05-04 13:36 26.70252 105.17314 35185 ft 519 kts 60°
2026-05-04 13:36 26.73184 105.24687 35205 ft 519 kts 60°
2026-05-04 13:37 26.76125 105.32054 35185 ft 519 kts 60°
2026-05-04 13:37 26.79052 105.39427 35209 ft 519 kts 60°
2026-05-04 13:38 26.81977 105.46819 35207 ft 519 kts 60°
2026-05-04 13:38 26.84895 105.54220 35211 ft 520 kts 60°
2026-05-04 13:39 26.87816 105.61625 35214 ft 520 kts 60°
2026-05-04 13:39 26.90777 105.69021 35209 ft 519 kts 59°
2026-05-04 13:40 26.93732 105.76396 35198 ft 519 kts 59°
2026-05-04 13:40 26.96675 105.83755 35198 ft 520 kts 60°
2026-05-04 13:41 26.99619 105.91162 35203 ft 521 kts 60°
2026-05-04 13:41 27.02568 105.98586 35211 ft 521 kts 60°
2026-05-04 13:42 27.07151 106.09617 35209 ft 518 kts 56°
2026-05-04 13:42 27.10485 106.16779 35207 ft 518 kts 55°
2026-05-04 13:43 27.13830 106.23944 35236 ft 518 kts 56°
2026-05-04 13:43 27.17102 106.31165 35231 ft 520 kts 57°
2026-05-04 13:44 27.20335 106.38423 35232 ft 519 kts 56°
2026-05-04 13:44 27.23589 106.45657 35227 ft 518 kts 56°
2026-05-04 13:45 27.26878 106.52870 35220 ft 518 kts 56°
2026-05-04 13:45 27.30161 106.60085 35217 ft 519 kts 56°
2026-05-04 13:46 27.33437 106.67333 35216 ft 520 kts 56°
2026-05-04 13:46 27.36712 106.74589 35227 ft 520 kts 56°
2026-05-04 13:47 27.39977 106.81848 35213 ft 520 kts 56°
2026-05-04 13:47 27.43226 106.89117 35212 ft 520 kts 56°
2026-05-04 13:48 27.46467 106.96399 35220 ft 520 kts 56°
2026-05-04 13:48 27.49713 107.03665 35210 ft 519 kts 56°
2026-05-04 13:49 27.53000 107.10913 35214 ft 519 kts 56°
2026-05-04 13:49 27.56298 107.18159 35205 ft 520 kts 56°
2026-05-04 13:50 27.59577 107.25423 35206 ft 520 kts 56°
2026-05-04 13:50 27.62842 107.32694 35203 ft 520 kts 56°
2026-05-04 13:51 27.66111 107.39961 35206 ft 520 kts 56°
2026-05-04 13:51 27.69381 107.47246 35196 ft 521 kts 56°
2026-05-04 13:52 27.74281 107.58182 35190 ft 521 kts 56°
2026-05-04 13:53 27.77541 107.65489 35186 ft 521 kts 56°
2026-05-04 13:53 27.80795 107.72792 35218 ft 521 kts 56°
2026-05-04 13:54 27.85700 107.83719 35201 ft 520 kts 56°
2026-05-04 13:55 27.90697 107.94586 35187 ft 520 kts 55°
2026-05-04 13:55 27.95652 108.05471 35173 ft 518 kts 56°
2026-05-04 13:56 27.98929 108.12730 35175 ft 518 kts 56°
2026-05-04 13:57 28.03860 108.23630 35197 ft 519 kts 56°
2026-05-04 13:58 28.10431 108.38200 35142 ft 520 kts 56°
2026-05-04 13:58 28.15359 108.49159 35149 ft 521 kts 56°
2026-05-04 13:59 28.18654 108.56487 35149 ft 522 kts 56°
2026-05-04 14:00 28.23566 108.67468 35187 ft 523 kts 56°
2026-05-04 14:00 28.28532 108.78593 35174 ft 526 kts 56°
2026-05-04 14:01 28.31809 108.85949 35153 ft 526 kts 56°
2026-05-04 14:02 28.36802 108.97072 35143 ft 527 kts 56°
2026-05-04 14:02 28.40138 109.04500 35151 ft 528 kts 56°
2026-05-04 14:03 28.43453 109.11947 35149 ft 528 kts 56°
2026-05-04 14:03 28.46753 109.19408 35156 ft 529 kts 57°
2026-05-04 14:04 28.51633 109.30708 35140 ft 532 kts 57°
2026-05-04 14:04 28.54880 109.38270 35145 ft 532 kts 57°
2026-05-04 14:05 28.59659 109.49687 35147 ft 536 kts 61°
2026-05-04 14:06 28.62422 109.57595 35139 ft 539 kts 64°
2026-05-04 14:06 28.65055 109.65594 35173 ft 539 kts 64°
2026-05-04 14:07 28.67801 109.73536 35167 ft 539 kts 62°
2026-05-04 14:07 28.70685 109.81407 35175 ft 538 kts 61°
2026-05-04 14:08 28.73570 109.89280 35172 ft 539 kts 62°
2026-05-04 14:08 28.76400 109.97188 35169 ft 539 kts 62°
2026-05-04 14:09 28.80605 110.09070 35163 ft 538 kts 62°
2026-05-04 14:10 28.84824 110.20956 35166 ft 538 kts 63°
2026-05-04 14:10 28.87164 110.27564 35151 ft 535 kts 63°
2026-05-04 14:11 28.89946 110.35440 35142 ft 535 kts 63°
2026-05-04 14:11 28.94113 110.47260 35142 ft 535 kts 63°
2026-05-04 14:12 28.96865 110.55097 35132 ft 535 kts 63°
2026-05-04 14:13 29.01004 110.66954 35126 ft 536 kts 63°
2026-05-04 14:13 29.03768 110.74866 35172 ft 536 kts 63°
2026-05-04 14:14 29.06599 110.82799 35167 ft 535 kts 63°
2026-05-04 14:14 29.10844 110.94591 35156 ft 534 kts 63°
2026-05-04 14:15 29.16415 111.10333 35139 ft 534 kts 63°
2026-05-04 14:16 29.20584 111.22147 35133 ft 534 kts 63°
2026-05-04 14:17 29.24748 111.33978 35153 ft 533 kts 64°
2026-05-04 14:18 29.28893 111.45785 35141 ft 532 kts 64°
2026-05-04 14:19 29.34367 111.61445 35132 ft 531 kts 64°
2026-05-04 14:19 29.37819 111.68809 35129 ft 521 kts 51°
2026-05-04 14:20 29.41789 111.75766 35129 ft 521 kts 51°
2026-05-04 14:20 29.45760 111.82727 35118 ft 522 kts 51°
2026-05-04 14:21 29.51707 111.93211 35114 ft 523 kts 51°
2026-05-04 14:21 29.55672 112.00205 35113 ft 522 kts 51°
2026-05-04 14:22 29.59628 112.07216 35114 ft 523 kts 51°
2026-05-04 14:22 29.63582 112.14238 35140 ft 523 kts 51°
2026-05-04 14:23 29.69514 112.24766 35134 ft 523 kts 52°
2026-05-04 14:24 29.73459 112.31792 35132 ft 523 kts 52°
2026-05-04 14:24 29.77394 112.38824 35126 ft 523 kts 52°
2026-05-04 14:25 29.81338 112.45856 35159 ft 523 kts 52°
2026-05-04 14:25 29.87241 112.56416 35143 ft 522 kts 52°
2026-05-04 14:26 29.91169 112.63462 35140 ft 523 kts 52°
2026-05-04 14:26 29.95087 112.70518 35136 ft 522 kts 52°
2026-05-04 14:27 29.99001 112.77569 35135 ft 522 kts 52°
2026-05-04 14:27 30.02925 112.84628 35157 ft 523 kts 52°
2026-05-04 14:28 30.06847 112.91687 35145 ft 522 kts 52°
2026-05-04 14:28 30.10754 112.98755 35135 ft 522 kts 53°
2026-05-04 14:29 30.18534 113.12900 35130 ft 522 kts 53°
2026-05-04 14:30 30.22436 113.19983 35158 ft 522 kts 53°
2026-05-04 14:31 30.28350 113.30537 35146 ft 520 kts 52°
2026-05-04 14:32 30.36213 113.44522 35131 ft 520 kts 52°
2026-05-04 14:32 30.40143 113.51567 35123 ft 521 kts 52°
2026-05-04 14:33 30.44094 113.58665 35144 ft 520 kts 53°
2026-05-04 14:33 30.48003 113.65713 35143 ft 519 kts 53°
2026-05-04 14:34 30.51915 113.72751 35140 ft 519 kts 53°
2026-05-04 14:34 30.55411 113.80092 35128 ft 525 kts 67°
2026-05-04 14:35 30.56933 113.88385 35121 ft 529 kts 87°
2026-05-04 14:35 30.56456 113.96885 35115 ft 529 kts 97°
2026-05-04 14:36 30.55663 114.05382 35116 ft 530 kts 97°
2026-05-04 14:36 30.54852 114.13882 35143 ft 531 kts 97°
2026-05-04 14:37 30.54028 114.22387 35140 ft 530 kts 97°
2026-05-04 14:37 30.53214 114.30879 35142 ft 530 kts 97°
2026-05-04 14:38 30.52411 114.39316 35133 ft 529 kts 97°
2026-05-04 14:38 30.51593 114.47802 35127 ft 530 kts 98°
2026-05-04 14:39 30.50764 114.56291 35134 ft 530 kts 98°
2026-05-04 14:39 30.49923 114.64789 35132 ft 531 kts 98°
2026-05-04 14:40 30.48659 114.77537 35147 ft 530 kts 98°
2026-05-04 14:40 30.47803 114.86083 35153 ft 530 kts 98°
2026-05-04 14:41 30.46949 114.94522 35159 ft 531 kts 98°
2026-05-04 14:42 30.45223 115.11526 35150 ft 532 kts 98°
2026-05-04 14:42 30.44336 115.20042 35146 ft 532 kts 100°
2026-05-04 14:43 30.42378 115.28228 35146 ft 525 kts 118°
2026-05-04 14:43 30.38776 115.35472 35152 ft 517 kts 129°
2026-05-04 14:44 30.34848 115.42461 35154 ft 518 kts 128°
2026-05-04 14:44 30.30916 115.49453 35158 ft 519 kts 129°
2026-05-04 14:45 30.28943 115.52958 34887 ft 519 kts 128°
2026-05-04 14:45 30.26977 115.56448 34537 ft 518 kts 129°
2026-05-04 14:45 30.25009 115.59934 34178 ft 517 kts 129°
2026-05-04 14:45 30.23042 115.63417 33787 ft 517 kts 129°
2026-05-04 14:46 30.21073 115.66899 33398 ft 518 kts 129°
2026-05-04 14:46 30.19100 115.70388 33009 ft 519 kts 129°
2026-05-04 14:46 30.17123 115.73879 32625 ft 519 kts 129°
2026-05-04 14:46 30.15145 115.77367 32248 ft 519 kts 129°
2026-05-04 14:47 30.13165 115.80849 31893 ft 519 kts 129°
2026-05-04 14:47 30.11190 115.84326 31506 ft 518 kts 129°
2026-05-04 14:47 30.09210 115.87813 31144 ft 519 kts 129°
2026-05-04 14:47 30.07236 115.91296 30785 ft 519 kts 129°
2026-05-04 14:48 30.05258 115.94781 30429 ft 519 kts 129°
2026-05-04 14:48 30.03278 115.98262 30055 ft 520 kts 130°
2026-05-04 14:48 30.01283 116.01754 29637 ft 521 kts 130°
2026-05-04 14:48 29.99286 116.05241 29218 ft 521 kts 129°
2026-05-04 14:49 29.97293 116.08721 28817 ft 520 kts 129°
2026-05-04 14:49 29.95310 116.12198 28419 ft 519 kts 129°
2026-05-04 14:49 29.93326 116.15674 28023 ft 518 kts 128°
2026-05-04 14:49 29.91343 116.19140 27636 ft 517 kts 128°
2026-05-04 14:50 29.89360 116.22596 27249 ft 516 kts 128°
2026-05-04 14:50 29.87379 116.26042 26868 ft 514 kts 128°
2026-05-04 14:50 29.85422 116.29448 26482 ft 505 kts 128°
2026-05-04 14:50 29.83496 116.32800 26095 ft 501 kts 129°
2026-05-04 14:51 29.81564 116.36151 25732 ft 503 kts 129°
2026-05-04 14:51 29.79629 116.39506 25381 ft 503 kts 128°
2026-05-04 14:51 29.77697 116.42862 25025 ft 502 kts 128°
2026-05-04 14:51 29.75772 116.46203 24732 ft 501 kts 128°
2026-05-04 14:52 29.73844 116.49547 24644 ft 500 kts 128°
2026-05-04 14:52 29.71920 116.52884 24675 ft 501 kts 128°
2026-05-04 14:52 29.69995 116.56215 24673 ft 500 kts 129°
2026-05-04 14:52 29.68587 116.58292 24665 ft 494 kts 139°
2026-05-04 14:53 29.65979 116.60762 24677 ft 481 kts 155°
2026-05-04 14:53 29.62973 116.62281 24678 ft 466 kts 171°
2026-05-04 14:53 29.59838 116.63135 24677 ft 463 kts 174°
2026-05-04 14:53 29.56693 116.63948 24670 ft 465 kts 171°
2026-05-04 14:54 29.53577 116.65001 24681 ft 465 kts 173°
2026-05-04 14:54 29.50432 116.65823 24655 ft 464 kts 174°
2026-05-04 14:54 29.47278 116.66605 24677 ft 465 kts 174°
2026-05-04 14:54 29.44067 116.67397 24676 ft 465 kts 174°
2026-05-04 14:55 29.40906 116.68178 24676 ft 465 kts 174°
2026-05-04 14:55 29.37744 116.68958 24670 ft 465 kts 174°
2026-05-04 14:55 29.34579 116.69739 24674 ft 465 kts 174°
2026-05-04 14:55 29.31419 116.70519 24676 ft 465 kts 174°
2026-05-04 14:56 29.28256 116.71298 24677 ft 465 kts 174°
2026-05-04 14:56 29.25090 116.72078 24671 ft 465 kts 174°
2026-05-04 14:56 29.21928 116.72856 24658 ft 465 kts 174°
2026-05-04 14:56 29.18764 116.73638 24674 ft 465 kts 174°
2026-05-04 14:57 29.15602 116.74420 24671 ft 465 kts 174°
2026-05-04 14:57 29.12437 116.75203 24673 ft 465 kts 174°
2026-05-04 14:57 29.09373 116.76318 24667 ft 477 kts 161°
2026-05-04 14:57 29.06519 116.78440 24666 ft 491 kts 144°
2026-05-04 14:58 29.04233 116.81402 24675 ft 503 kts 128°
2026-05-04 14:58 29.02659 116.84940 24679 ft 511 kts 115°
2026-05-04 14:58 29.01349 116.88716 24667 ft 512 kts 115°
2026-05-04 14:58 29.00070 116.92508 24680 ft 512 kts 114°
2026-05-04 14:59 28.98796 116.96309 24678 ft 513 kts 114°
2026-05-04 14:59 28.97521 117.00117 24680 ft 513 kts 114°
2026-05-04 14:59 28.94978 117.07718 24680 ft 512 kts 114°
2026-05-04 15:00 28.93707 117.11515 24684 ft 512 kts 114°
2026-05-04 15:00 28.92435 117.15318 24687 ft 512 kts 114°
2026-05-04 15:00 28.91167 117.19119 24684 ft 513 kts 114°
2026-05-04 15:01 28.88637 117.26731 24689 ft 513 kts 114°
2026-05-04 15:01 28.87374 117.30536 24687 ft 513 kts 114°
2026-05-04 15:01 28.86491 117.34494 24684 ft 519 kts 98°
2026-05-04 15:01 28.86506 117.38607 24693 ft 522 kts 82°
2026-05-04 15:02 28.87433 117.42599 24692 ft 521 kts 66°
2026-05-04 15:02 28.89209 117.46177 24695 ft 516 kts 49°
2026-05-04 15:02 28.91684 117.49071 24691 ft 508 kts 33°
2026-05-04 15:02 28.94683 117.51104 24696 ft 496 kts 17°
2026-05-04 15:03 28.97958 117.52133 24694 ft 482 kts
2026-05-04 15:03 29.01242 117.52124 24697 ft 468 kts 346°
2026-05-04 15:03 29.04418 117.51479 24691 ft 458 kts 335°
2026-05-04 15:03 29.07287 117.50038 24718 ft 447 kts 325°
2026-05-04 15:04 29.10010 117.48343 24691 ft 445 kts 324°
2026-05-04 15:04 29.12712 117.46633 24693 ft 444 kts 324°
2026-05-04 15:04 29.15415 117.44912 24692 ft 444 kts 324°
2026-05-04 15:04 29.18112 117.43193 24689 ft 444 kts 324°
2026-05-04 15:05 29.20808 117.41473 24689 ft 444 kts 324°
2026-05-04 15:05 29.23506 117.39751 24699 ft 444 kts 324°
2026-05-04 15:05 29.26200 117.38029 24701 ft 444 kts 324°
2026-05-04 15:05 29.28901 117.36305 24700 ft 444 kts 324°
2026-05-04 15:06 29.31593 117.34585 24684 ft 444 kts 324°
2026-05-04 15:06 29.34288 117.32862 24689 ft 443 kts 324°
2026-05-04 15:06 29.36983 117.31138 24719 ft 443 kts 324°
2026-05-04 15:07 29.42392 117.27740 24314 ft 451 kts 330°
2026-05-04 15:07 29.45472 117.26704 23977 ft 474 kts 346°
2026-05-04 15:07 29.48823 117.26742 23635 ft 490 kts
2026-05-04 15:07 29.52057 117.27979 23236 ft 494 kts 23°
2026-05-04 15:08 29.54837 117.30316 22835 ft 501 kts 42°
2026-05-04 15:08 29.56891 117.33559 22443 ft 507 kts 62°
2026-05-04 15:08 29.58018 117.37403 22064 ft 510 kts 77°
2026-05-04 15:08 29.58770 117.41386 21678 ft 510 kts 77°
2026-05-04 15:09 29.59493 117.45363 21310 ft 504 kts 78°
2026-05-04 15:09 29.60186 117.49247 20939 ft 491 kts 78°
2026-05-04 15:09 29.60861 117.53074 20571 ft 487 kts 78°
2026-05-04 15:10 29.62206 117.60662 19885 ft 481 kts 78°
2026-05-04 15:10 29.62881 117.64416 19766 ft 478 kts 78°
2026-05-04 15:10 29.64237 117.71897 19804 ft 478 kts 78°
2026-05-04 15:11 29.64916 117.75641 19799 ft 478 kts 78°
2026-05-04 15:11 29.65590 117.79375 19803 ft 478 kts 78°
2026-05-04 15:11 29.66262 117.83116 19813 ft 478 kts 78°
2026-05-04 15:11 29.66932 117.86863 19803 ft 478 kts 78°
2026-05-04 15:12 29.67597 117.90605 19809 ft 478 kts 78°
2026-05-04 15:12 29.68265 117.94354 19818 ft 478 kts 78°
2026-05-04 15:12 29.68931 117.98097 19803 ft 478 kts 78°
2026-05-04 15:12 29.69597 118.01844 19806 ft 478 kts 78°
2026-05-04 15:13 29.70259 118.05589 19809 ft 478 kts 78°
2026-05-04 15:13 29.70922 118.09337 19819 ft 478 kts 78°
2026-05-04 15:13 29.71583 118.13080 19807 ft 478 kts 78°
2026-05-04 15:13 29.72242 118.16829 19809 ft 478 kts 78°
2026-05-04 15:14 29.72900 118.20583 19805 ft 478 kts 78°
2026-05-04 15:14 29.73375 118.24365 19810 ft 478 kts 85°
2026-05-04 15:14 29.73455 118.28188 19810 ft 478 kts 92°
2026-05-04 15:14 29.73175 118.31991 19811 ft 477 kts 97°
2026-05-04 15:15 29.72832 118.35786 19810 ft 477 kts 97°
2026-05-04 15:15 29.72495 118.39589 19810 ft 478 kts 97°
2026-05-04 15:15 29.72160 118.43394 19653 ft 479 kts 96°
2026-05-04 15:16 29.71486 118.51019 18951 ft 479 kts 96°
2026-05-04 15:16 29.71151 118.54774 18611 ft 478 kts 96°
2026-05-04 15:16 29.70468 118.62381 17856 ft 478 kts 96°
2026-05-04 15:17 29.70123 118.66174 17466 ft 476 kts 96°
2026-05-04 15:17 29.70850 118.73498 16692 ft 451 kts 69°
2026-05-04 15:17 29.71908 118.76833 16384 ft 437 kts 69°
2026-05-04 15:18 29.72936 118.80061 16136 ft 422 kts 69°
2026-05-04 15:18 29.73931 118.83181 15897 ft 409 kts 69°
2026-05-04 15:18 29.74900 118.86213 15648 ft 399 kts 69°
2026-05-04 15:19 29.76793 118.92142 15173 ft 391 kts 69°
2026-05-04 15:19 29.77727 118.95073 14940 ft 389 kts 69°
2026-05-04 15:19 29.79580 119.00888 14456 ft 384 kts 69°
2026-05-04 15:20 29.80493 119.03766 14221 ft 381 kts 70°
2026-05-04 15:20 29.81395 119.06623 14005 ft 378 kts 70°
2026-05-04 15:20 29.82292 119.09466 13808 ft 376 kts 70°
2026-05-04 15:20 29.83183 119.12288 13545 ft 374 kts 70°
2026-05-04 15:21 29.84070 119.15100 13280 ft 372 kts 70°
2026-05-04 15:21 29.84951 119.17889 13023 ft 370 kts 70°
2026-05-04 15:21 29.86702 119.23437 12512 ft 366 kts 70°
2026-05-04 15:22 29.87566 119.26185 12257 ft 364 kts 70°
2026-05-04 15:22 29.88425 119.28921 12006 ft 362 kts 70°
2026-05-04 15:22 29.90125 119.34339 11508 ft 357 kts 70°
2026-05-04 15:23 29.90967 119.37020 11265 ft 354 kts 69°
2026-05-04 15:23 29.91804 119.39688 11037 ft 354 kts 70°
2026-05-04 15:23 29.92638 119.42350 10791 ft 352 kts 70°
2026-05-04 15:23 29.93465 119.44995 10547 ft 350 kts 70°
2026-05-04 15:24 29.95045 119.50063 10358 ft 320 kts 70°
2026-05-04 15:24 29.96475 119.54657 10308 ft 292 kts 70°
2026-05-04 15:25 29.97164 119.56859 10101 ft 291 kts 70°
2026-05-04 15:25 29.97849 119.59046 9879 ft 288 kts 70°
2026-05-04 15:25 29.98528 119.61217 9799 ft 287 kts 70°
2026-05-04 15:26 29.99883 119.65569 9798 ft 288 kts 70°
2026-05-04 15:26 30.00560 119.67750 9540 ft 288 kts 70°
2026-05-04 15:26 30.01897 119.72080 9026 ft 285 kts 70°
2026-05-04 15:27 30.02562 119.74231 8773 ft 284 kts 70°
2026-05-04 15:27 30.04021 119.78449 8267 ft 282 kts 62°
2026-05-04 15:28 30.05834 119.82443 7760 ft 280 kts 62°
2026-05-04 15:28 30.06733 119.84436 7522 ft 280 kts 62°
2026-05-04 15:28 30.08522 119.88406 7037 ft 277 kts 62°
2026-05-04 15:29 30.09399 119.90354 6905 ft 278 kts 62°
2026-05-04 15:30 30.12961 119.98301 6905 ft 278 kts 62°
2026-05-04 15:30 30.15619 120.04217 6904 ft 278 kts 62°
2026-05-04 15:31 30.17396 120.08181 6905 ft 278 kts 62°
2026-05-04 15:31 30.18280 120.10164 6899 ft 277 kts 62°
2026-05-04 15:32 30.20938 120.16114 6900 ft 278 kts 62°
2026-05-04 15:32 30.22706 120.20083 6898 ft 277 kts 62°
2026-05-04 15:33 30.24474 120.24050 6908 ft 278 kts 62°
2026-05-04 15:34 30.27093 120.29952 6907 ft 268 kts 62°
2026-05-04 15:34 30.27942 120.31866 6909 ft 267 kts 62°
2026-05-04 15:34 30.29638 120.35685 6910 ft 267 kts 62°
2026-05-04 15:35 30.31321 120.39477 6255 ft 263 kts 62°
2026-05-04 15:35 30.32150 120.41352 5941 ft 260 kts 62°
2026-05-04 15:35 30.32710 120.42617 5897 ft 262 kts 62°
2026-05-04 15:36 30.34374 120.46379 5911 ft 264 kts 62°
2026-05-04 15:36 30.35211 120.48266 5905 ft 261 kts 62°
2026-05-04 15:36 30.36022 120.50103 5875 ft 251 kts 62°
2026-05-04 15:37 30.36795 120.51852 5753 ft 241 kts 62°
2026-05-04 15:37 30.37539 120.53549 5583 ft 230 kts 63°
2026-05-04 15:37 30.38224 120.55188 5389 ft 221 kts 63°
2026-05-04 15:37 30.38866 120.56737 5269 ft 205 kts 64°
2026-05-04 15:38 30.39476 120.58194 4969 ft 199 kts 64°
2026-05-04 15:38 30.40084 120.59626 4580 ft 198 kts 63°
2026-05-04 15:38 30.40700 120.61053 4205 ft 198 kts 64°
2026-05-04 15:38 30.41324 120.62472 3841 ft 197 kts 64°
2026-05-04 15:39 30.41954 120.63878 3478 ft 196 kts 64°
2026-05-04 15:39 30.42508 120.65308 3083 ft 194 kts 81°
2026-05-04 15:39 30.41375 120.67780 3011 ft 184 kts 149°
2026-05-04 15:40 30.40273 120.68530 3003 ft 183 kts 153°
2026-05-04 15:40 30.39141 120.69209 2989 ft 182 kts 163°
2026-05-04 15:40 30.37906 120.69181 3001 ft 180 kts 197°
2026-05-04 15:40 30.36738 120.68645 2997 ft 181 kts 209°
2026-05-04 15:41 30.35778 120.67717 2991 ft 182 kts 230°
2026-05-04 15:41 30.35140 120.66449 2995 ft 183 kts 241°
2026-05-04 15:41 30.34563 120.65135 2993 ft 183 kts 241°
2026-05-04 15:41 30.33986 120.63823 2989 ft 183 kts 241°
2026-05-04 15:42 30.33405 120.62505 2988 ft 184 kts 241°
2026-05-04 15:42 30.32823 120.61186 2988 ft 184 kts 241°
2026-05-04 15:42 30.32240 120.59865 2909 ft 185 kts 241°
2026-05-04 15:42 30.31657 120.58542 2726 ft 183 kts 241°
2026-05-04 15:43 30.31080 120.57236 2489 ft 181 kts 240°
2026-05-04 15:43 30.30531 120.55991 2286 ft 165 kts 240°
2026-05-04 15:43 30.30025 120.54848 2059 ft 155 kts 240°
2026-05-04 15:43 30.29558 120.53789 1859 ft 142 kts 239°
2026-05-04 15:44 30.29114 120.52787 1677 ft 138 kts 239°
2026-05-04 15:44 30.28673 120.51791 1490 ft 137 kts 240°
2026-05-04 15:44 30.28239 120.50810 1312 ft 137 kts 239°
2026-05-04 15:44 30.27803 120.49826 1127 ft 138 kts 239°
2026-05-04 15:45 30.27366 120.48836 957 ft 138 kts 239°
2026-05-04 15:45 30.26926 120.47844 778 ft 139 kts 240°
2026-05-04 15:45 30.26484 120.46846 605 ft 140 kts 240°
2026-05-04 15:45 30.26041 120.45836 414 ft 141 kts 242°
2026-05-04 15:46 30.25589 120.44829 247 ft 142 kts 242°
2026-05-04 15:46 30.25146 120.43827 53 ft 141 kts 242°
2026-05-04 15:46 30.24741 120.42911 32 ft 104 kts 243°
2026-05-04 15:46 30.24497 120.42359 31 ft 53 kts 243°
2026-05-04 15:47 30.24372 120.42079 32 ft 33 kts 242°
2026-05-04 15:47 30.24257 120.41900 32 ft 25 kts 222°
2026-05-04 15:47 30.24132 120.41793 32 ft 13 kts 214°
2026-05-04 15:47 30.24080 120.41814 31 ft 8 kts 107°
2026-05-04 15:48 30.24092 120.41877 32 ft 8 kts 62°
2026-05-04 15:48 30.24116 120.41932 32 ft 7 kts 63°
2026-05-04 15:48 30.24158 120.42027 30 ft 6 kts 63°
2026-05-04 15:49 30.24178 120.42080 32 ft 9 kts 80°
2026-05-04 15:49 30.24129 120.42137 32 ft 13 kts 152°
2026-05-04 15:49 30.24034 120.42176 32 ft 15 kts 171°
2026-05-04 15:49 30.23937 120.42215 32 ft 13 kts 153°
2026-05-04 15:50 30.23862 120.42260 32 ft 12 kts 153°
2026-05-04 15:50 30.23806 120.42305 32 ft 6 kts 105°
2026-05-04 15:50 30.23821 120.42351 31 ft 6 kts 65°
2026-05-04 15:50 30.23837 120.42390 32 ft 5 kts 63°
2026-05-04 15:51 30.23838 120.42394 32 ft 0 kts 64°